519  
ASUS44 KMOB 250012  
RWRMOB  
REGIONAL WEATHER ROUNDUP  
NATIONAL WEATHER SERVICE MOBILE AL  
700 PM CDT WED APR 24 2019  
 
NOTE: "FAIR" INDICATES FEW OR NO CLOUDS BELOW 12,000 FEET WITH NO  
SIGNIFICANT WEATHER AND/OR S TO VISIBILITY
.  
 
* THESE STATIONS ARE PART OF THE UNIVERSITY OF SOUTH ALABAMA  
MESONET AND ARE NOT UNDER NWS OR FAA QUALITY CONTROL.
 
 
ALZ061>064-250100-  
COASTAL ALABAMA  
 
CITY SKY/WX TMP DP RH WIND PRES REMARKS
 
MOBILE REG APT MOCLDY 73 66 78 S8 29.98R  
6HR MIN TEMP: 73; 6HR MAX TEMP: 78;  
 
BROOKLEY FIELD MOCLDY 72 69 90 S6 29.99R  
6HR MIN TEMP: 72; 6HR MAX TEMP: 76;  
 
USA CAMPUS* N/A 72 66 83 CALM 29.99R  
DOG RIVER* N/A 70 68 94 S7 29.99R  
 
 
CITY SKY/WX TMP DP RH WIND PRES REMARKS
 
GULF SHORES MOCLDY 71 68 91 SE5 29.97S  
 

 
 
ALZ051>060-250100-  
INTERIOR SOUTHWEST AND SOUTH CENTRAL ALABAMA  
 
CITY SKY/WX TMP DP RH WIND PRES REMARKS
 
GREENVILLE FAIR 74 57 55 S5 29.95F  
6HR MIN TEMP: 74; 6HR MAX TEMP: 82;  
 
EVERGREEN FAIR 75 62 64 S7 29.96S  
6HR MIN TEMP: 75; 6HR MAX TEMP: 83;  
 
ATMORE* N/A 72 64 78 S5 29.98R  
ANDALUSIA/OPP FAIR 74 58 57 S3 29.97S  
6HR MIN TEMP: 74; 6HR MAX TEMP: 82;  
 
ANDALUSIA* N/A 72 59 64 S7 29.98S  
FLORALA APT FAIR 70 57 63 S5 30.00S  
6HR MIN TEMP: 70; 6HR MAX TEMP: 78;  
 
FLORALA* N/A 63 50 63 CALM 29.99S  
 

 
 
FLZ001>006-250100-  
WESTERN FLORIDA PANHANDLE  
 
CITY SKY/WX TMP DP RH WIND PRES REMARKS
 
PENSACOLA FAIR 71 68 90 SE7 29.98R  
6HR MIN TEMP: 71; 6HR MAX TEMP: 74;  
 
NAS PENSACOLA MOCLDY 70 68 93 SE9 29.97S  
6HR MIN TEMP: 70; 6HR MAX TEMP: 74;  
 
MILTON MOCLDY 70 64 81 S9 29.98S  
6HR MIN TEMP: 70; 6HR MAX TEMP: 75;  
 
WHTNG S FIELD MOCLDY 69 64 84 S6 29.97F  
6HR MIN TEMP: 69; 6HR MAX TEMP: 74;  
 
 
CITY SKY/WX TMP DP RH WIND PRES REMARKS
 
JAY* N/A 72 63 73 S9 29.99S  
DUKE FIELD FAIR 70 60 70 S7 29.98  
CRESTVIEW FAIR 70 59 68 S5 30.00S  
6HR MIN TEMP: 70; 6HR MAX TEMP: 78;  
 
VALPARAISO FAIR 70 63 77 SE9 29.98F  
6HR MIN TEMP: 70; 6HR MAX TEMP: 73; 6HR PCP: TRACE;  
 
DESTIN FAIR 71 64 78 SE6 29.98F  
6HR MIN TEMP: 70; 6HR MAX TEMP: 72;  
 

 
 
MSZ076-079-250100-  
INTERIOR SOUTHEAST MISSISSIPPI  
 
CITY SKY/WX TMP DP RH WIND PRES REMARKS
 
LEAKESVILLE* N/A 72 64 78 CALM 29.96F  
AGRICOLA* N/A 72 66 83 CALM 29.97S  
 

 
 
MARINE OBSERVATIONS  
 
STATION/POSITION TIME TEMP WIND PRES WAVE
 
AIR SEA DIR/SP/G HT/PER  
(UTC) (F) (DEG/KT/KT) (MB) (FT/S)  
PETIT BOIS ISLND 2342 71 150/ 8/ 11 1015.5R  
GRAND BAY 2245 72 160/ 11 1016.0S  
KATRINA CUT 2330 150/ 10 1015.2R  
CEDAR POINT 2330 73 140/ 12 1014.2S  
E DAUPHIN ISLAND 2300 71 130/ 9/ 10 1014.7F  
USCG MOBILE BAY 2342 72 69 180/ 5/ 8 1015.1R  
STATE DOCKS 2342 71 67 1014.9S  
MEAHER PARK 2330 71 170/ 7 1015.2F  
WEEKS BAY 2245 74 1015.0S  
FORT MORGAN 2348 71 150/ 8/ 9 1015.0R  
12 S ORANGE BCH 2330 1015.1F  
PENSACOLA BAY 2348 71 71 160/ 4/ 5 1015.2F  
64 S DAUPHIN ISL 2350 140/ 10/ 12 1015.1R 2/ 6  
 

 
 
SELECTED LOCATIONS ACROSS THE REGION  
 
CITY SKY/WX TMP DP RH WIND PRES REMARKS
 
NEW ORLEANS FAIR 76 66 71 S10 29.90F  
GULFPORT FAIR 73 68 84 SE12 29.93F  
PASCAGOULA AP FAIR 73 66 78 S5 29.97R  
PASCAGOULA* N/A 72 70 94 CALM 29.96S  
HATTIESBURG FAIR 74 65 73 SE10 29.91F  
LAUREL N/A 74 65 73 SE8 29.91F  
MERIDIAN FAIR 77 61 57 S9 29.90F  
JACKSON FAIR 76 61 59 S10 29.87F  
MONTGOMERY FAIR 76 60 57 S6 29.95R  
TROY FAIR 72 58 61 S6 29.98R  
ASHFORD* N/A 72 59 64 S7 29.98S  
DOTHAN FAIR 72 56 57 SW7 30.02S  
PANAMA CITY FAIR 69 60 73 SE3 29.98F  
 

 
 
 
 
CLICK HERE TO GO TO PREVIOUS BULLETINS.

The Nexlab AL Page
The Nexlab FL Page
The Nexlab MS Page Main Text Page